Regional Weather Roundup
Issued by NWS

Home | Current Version | Previous Version | Graphics & Text | Print | Product List | Glossary On
Versions: 1 2 3 4 5 6 7 8 9 10 11 12 13 14 15 16 17 18 19 20 21 22 23 24 25 26 27 28 29 30 31 32 33 34 35 36 37 38 39 40 41 42 43 44 45 46 47 48 49 50
000
ASUS44 KMEG 310800
RWRTN
TENNESSEE HOURLY STATE WEATHER ROUNDUP
NATIONAL WEATHER SERVICE MEMPHIS TN
300 AM CDT SUN AUG 31 2014

TNZ002-004-019-021-049-052-054-088>092-310900-
WEST TENNESSEE

CITY           SKY/WX    TMP DP  RH WIND       PRES   REMARKS
MEMPHIS INTL   LGT RAIN  74  72  93 S13       29.97S
NWS MEMPHIS      N/A     73 N/A N/A MISG        N/A
JACKSON        RAIN      72  70  93 S6        30.00F
DYERSBURG      CLOUDY    72  63  73 S6        29.99F
PARIS          CLOUDY    70  68  94 S6        30.02S
SAVANNAH       CLOUDY    72  72 100 S8        30.04S
$$

TNZ008-025-027-028-033-062-065-066-310900-
NORTH MIDDLE TENNESSEE

CITY           SKY/WX    TMP DP  RH WIND       PRES   REMARKS
NASHVILLE      CLOUDY    72  70  93 S7        30.07S
CLARKSVILLE    LGT RAIN  72  70  93 S3        30.03S
COOKEVILLE     CLEAR     70  70 100 SE3       30.10F
CROSSVILLE     MOCLDY    70  66  87 S5        30.16S
$$

TNZ061-075-076-078-094-096-097-310900-
SOUTH MIDDLE TENNESSEE

CITY           SKY/WX    TMP DP  RH WIND       PRES   REMARKS
SHELBYVILLE    CLEAR     72  70  94 SE5       30.09F
$$

TNZ017-018-042-046-047-310900-
NORTHEAST TENNESSEE

CITY           SKY/WX    TMP DP  RH WIND       PRES   REMARKS
TRI CITIES     RAIN      69  66  90 CALM      30.19F
$$

TNZ012-013-036-069-073-074-310900-
CENTRAL EAST TENNESSEE

CITY           SKY/WX    TMP DP  RH WIND       PRES   REMARKS
KNOXVILLE      MOCLDY    70  68  93 CALM      30.12F
OAK RIDGE      MOCLDY    71  69  93 CALM      30.15S
$$

TNZ083-085-099-310900-
SOUTHEAST TENNESSEE

CITY           SKY/WX    TMP DP  RH WIND       PRES   REMARKS
CHATTANOOGA    PTCLDY    71  69  93 CALM      30.13F
$$

SKY/WX REPORTED AS FAIR MEANS FEW OR NO CLOUDS BELOW
12 THOUSAND FEET.



USA.gov is the U.S. government's official web portal to all federal, state and local government web resources and services.